{"data":{"norad_id":58660,"epoch":"2026-09-19T21:58:46.854048Z","epoch_age_seconds":68724,"freshness":"FRESH","line1":"1 58660U 23208A   26262.91582007  .00005606  00000+0  17913-3 0  9990","line2":"2 58660  97.4573  19.8292 0004346 356.3584   3.7626 15.32860086151835","mean_motion":15.32860086,"eccentricity":0.0004346,"inclination_deg":97.4573,"raan_deg":19.8292,"arg_perigee_deg":356.3584,"mean_anomaly_deg":3.7626,"bstar":0.00017913,"rev_number":15183,"period_min":93.942037707935,"perigee_km":464.30900041019,"apogee_km":470.25904036111,"semimajor_km":6845.4210203856,"source":"CELESTRAK","updated_at":"2026-09-20T09:00:33.254905Z"}}